Glencoe, MN

12:19 AM CST on December 08, 2019 (GMT -0600)
Glencoe Municipal

Weather History for KGYL - October, 2019

Change the Weather History Date:

Thursday, October 24, 2019

  Actual Average (WUND) Record (WUND)
Temperature  
Mean Temperature 36 °F -  
Max Temperature 44 °F - - (-1)
Min Temperature 29 °F - - (-1)
Degree Days  
Heating Degree Days 28    
Moisture  
Dew Point 27 °F    
Average Humidity 73    
Maximum Humidity 97    
Minimum Humidity 43    
Precipitation  
Precipitation 0.00 in - - ()
Sea Level Pressure  
Sea Level Pressure 30.29 in    
Wind  
Wind Speed 6 mph (WNW)    
Max Wind Speed 12 mph    
Max Gust Speed 21 mph    
Visibility 10 miles    
Events      
Averages and records for this station are not official NWS values.
T = Trace of Precipitation, MM = Missing Value Source: NWS Daily Summary

Daily Weather History Graph

Daily Weather History Graph

Search for Another Location

Airport or City:

Astronomy

Oct. 24, 2019 Rise Set
Actual Time 7:43 AM CDT 6:17 PM CDT
Civil Twilight 7:13 AM CDT 6:46 PM CDT
Nautical Twilight 6:39 AM CDT 7:21 PM CDT
Astronomical Twilight 6:05 AM CDT 7:54 PM CDT
Moon 2:58 AM CDT (10/24) 4:58 PM CDT (10/24)
Length of Visible Light 11h 33m
Length of Day
10h 33m
Waning Crescent, 16% of the Moon is Illuminated
Oct 24
Waning Crescent
Oct 27
New
Nov 4
First Quarter
Nov 12
Full
Nov 19
Last Quarter

Hourly Weather History & Observations

Time (CDT) Temp. Windchill Dew Point Humidity Pressure Visibility Wind Dir Wind Speed Gust Speed Precip Events Conditions
12:18 AM 40.1 °F 34.1 °F 32.5 °F 74% 30.17 in 10.0 mi WNW 9.2 mph - N/A   Overcast
12:36 AM 40.1 °F 34.1 °F 32.4 °F 74% 30.17 in 10.0 mi WNW 9.2 mph - N/A   Overcast
12:55 AM 39.7 °F 34.9 °F 32.9 °F 77% 30.17 in 10.0 mi WNW 6.9 mph - N/A   Overcast
12:56 AM 39.7 °F 34.3 °F 32.9 °F 77% 30.17 in 10.0 mi WNW 8.1 mph - N/A   Overcast
1:15 AM 39.6 °F 34.7 °F 33.1 °F 78% 30.17 in 10.0 mi WNW 6.9 mph - N/A   Overcast
1:19 AM 39.6 °F 34.0 °F 33.4 °F 79% 30.17 in 10.0 mi West 8.1 mph - N/A   Overcast
1:37 AM 39.2 °F 32.0 °F 33.3 °F 79% 30.17 in 10.0 mi NW 11.5 mph 18.4 mph N/A   Overcast
1:55 AM 38.8 °F 33.2 °F 32.9 °F 79% 30.18 in 10.0 mi NW 8.1 mph - N/A   Overcast
2:15 AM 38.8 °F 32.6 °F 32.0 °F 76% 30.19 in 10.0 mi NW 9.2 mph - N/A   Overcast
2:35 AM 38.7 °F 32.4 °F 28.0 °F 66% 30.20 in 10.0 mi NW 9.2 mph 17.3 mph N/A   Overcast
2:57 AM 38.3 °F 31.9 °F 26.8 °F 63% 30.21 in 10.0 mi NW 9.2 mph - N/A   Overcast
3:15 AM 36.0 °F 30.3 °F 27.0 °F 70% 30.22 in 10.0 mi WNW 6.9 mph - N/A   Scattered Clouds
3:16 AM 35.8 °F 30.9 °F 27.0 °F 70% 30.22 in 10.0 mi WNW 5.8 mph - N/A   Scattered Clouds
3:35 AM 35.2 °F 28.1 °F 26.4 °F 70% 30.22 in 10.0 mi WNW 9.2 mph - N/A   Clear
3:40 AM 35.2 °F 28.8 °F 26.4 °F 70% 30.22 in 10.0 mi WNW 8.1 mph - N/A   Clear
3:56 AM 34.5 °F 29.4 °F 26.6 °F 73% 30.24 in 10.0 mi West 5.8 mph - N/A   Clear
4:15 AM 33.3 °F 27.9 °F 26.8 °F 77% 30.24 in 10.0 mi West 5.8 mph - N/A   Clear
4:16 AM 33.3 °F 27.9 °F 27.0 °F 78% 30.24 in 10.0 mi West 5.8 mph - N/A   Clear
4:35 AM 33.1 °F 28.7 °F 27.0 °F 78% 30.25 in 10.0 mi West 4.6 mph - N/A   Clear
4:40 AM 33.1 °F 28.7 °F 26.8 °F 78% 30.25 in 10.0 mi WSW 4.6 mph - N/A   Clear
4:57 AM 32.4 °F 29.1 °F 27.1 °F 81% 30.25 in 10.0 mi WSW 3.5 mph - N/A   Clear
5:16 AM 32.0 °F 27.5 °F 27.1 °F 82% 30.26 in 10.0 mi West 4.6 mph - N/A   Clear
5:35 AM 31.6 °F 26.0 °F 27.5 °F 85% 30.26 in 10.0 mi West 5.8 mph - N/A   Clear
5:55 AM 32.0 °F 26.4 °F 27.9 °F 85% 30.27 in 10.0 mi West 5.8 mph - N/A   Clear
5:59 AM 32.0 °F 26.4 °F 28.0 °F 85% 30.27 in 10.0 mi West 5.8 mph - N/A   Clear
6:15 AM 32.0 °F 25.6 °F 28.0 °F 85% 30.28 in 10.0 mi West 6.9 mph - N/A   Clear
6:36 AM 32.0 °F 25.6 °F 28.6 °F 87% 30.29 in 10.0 mi West 6.9 mph - N/A   Clear
6:59 AM 31.6 °F 26.0 °F 28.9 °F 90% 30.28 in 10.0 mi West 5.8 mph - N/A   Clear
7:17 AM 31.3 °F 27.9 °F 28.8 °F 90% 30.29 in 10.0 mi WSW 3.5 mph - N/A   Clear
7:35 AM 31.1 °F 24.5 °F 29.8 °F 95% 30.29 in 10.0 mi West 6.9 mph - N/A   Clear
7:36 AM 31.1 °F 24.5 °F 29.8 °F 95% 30.29 in 10.0 mi West 6.9 mph - N/A   Clear
7:55 AM 31.6 °F 28.3 °F 29.7 °F 92% 30.29 in 10.0 mi WSW 3.5 mph - N/A   Clear
7:59 AM 31.3 °F 27.9 °F 29.3 °F 92% 30.30 in 10.0 mi WSW 3.5 mph - N/A   Clear
8:17 AM 30.6 °F 27.1 °F 29.1 °F 94% 30.30 in 10.0 mi WSW 3.5 mph - N/A   Clear
8:35 AM 31.1 °F 27.7 °F 30.4 °F 97% 30.32 in 10.0 mi WSW 3.5 mph - N/A   Clear
8:36 AM 31.1 °F - 30.4 °F 97% 30.32 in 10.0 mi Calm Calm - N/A   Clear
8:55 AM 32.0 °F 28.7 °F 30.4 °F 94% 30.32 in 10.0 mi West 3.5 mph - N/A   Clear
9:00 AM 32.0 °F 28.7 °F 30.6 °F 94% 30.32 in 10.0 mi West 3.5 mph - N/A   Clear
9:17 AM 33.8 °F 27.7 °F 30.6 °F 88% 30.33 in 10.0 mi West 6.9 mph - N/A   Clear
9:35 AM 34.9 °F 28.3 °F 30.2 °F 83% 30.32 in 10.0 mi WNW 8.1 mph - N/A   Clear
9:56 AM 35.6 °F 30.7 °F 30.4 °F 81% 30.32 in 10.0 mi WNW 5.8 mph - N/A   Clear
10:18 AM 37.4 °F 32.1 °F 29.7 °F 74% 30.33 in 10.0 mi NW 6.9 mph - N/A   Clear
10:35 AM 38.3 °F 31.9 °F 28.6 °F 68% 30.34 in 10.0 mi NW 9.2 mph - N/A   Clear
10:36 AM 38.3 °F 31.9 °F 28.2 °F 67% 30.34 in 10.0 mi NW 9.2 mph - N/A   Clear
10:55 AM 39.0 °F 32.8 °F 28.4 °F 66% 30.34 in 10.0 mi WNW 9.2 mph - N/A   Clear
11:18 AM 40.1 °F 33.6 °F 27.1 °F 60% 30.34 in 10.0 mi NW 10.4 mph - N/A   Clear
11:35 AM 41.2 °F 34.5 °F 26.6 °F 56% 30.34 in 10.0 mi NW 11.5 mph - N/A   Clear
11:36 AM 41.2 °F 34.5 °F 26.8 °F 57% 30.34 in 10.0 mi NNW 11.5 mph - N/A   Clear
11:55 AM 41.4 °F 34.7 °F 25.9 °F 54% 30.34 in 10.0 mi NW 11.5 mph - N/A   Clear
12:15 PM 42.3 °F 35.9 °F 26.2 °F 53% 30.35 in 10.0 mi WNW 11.5 mph 20.7 mph N/A   Clear
12:20 PM 41.7 °F 35.6 °F 25.9 °F 53% 30.35 in 10.0 mi NW 10.4 mph 20.7 mph N/A   Clear
1:15 PM 42.8 °F 39.3 °F 25.5 °F 51% 30.35 in 10.0 mi West 5.8 mph - N/A   Clear
1:39 PM - - - N/A% 30.34 in 10.0 mi West 5.8 mph - N/A   Clear
2:03 PM - - - N/A% 30.33 in 10.0 mi WNW 6.9 mph - N/A   Clear
2:15 PM 43.7 °F 39.7 °F 24.3 °F 46% 30.32 in 10.0 mi West 6.9 mph - N/A   Clear
2:16 PM 43.7 °F 39.7 °F 24.1 °F 46% 30.32 in 10.0 mi West 6.9 mph - N/A   Clear
2:36 PM 43.7 °F 38.1 °F 24.4 °F 47% 30.32 in 10.0 mi WNW 10.4 mph - N/A   Clear
2:59 PM 44.6 °F 42.2 °F 23.0 °F 43% 30.32 in 10.0 mi WNW 4.6 mph - N/A   Clear
3:28 PM - - - N/A% 30.32 in 10.0 mi NW 8.1 mph - N/A   Clear
3:37 PM 44.6 °F 41.4 °F 23.2 °F 43% 30.32 in 10.0 mi WNW 5.8 mph - N/A   Clear
3:55 PM 44.2 °F 41.8 °F 22.8 °F 43% 30.32 in 7.0 mi WNW 4.6 mph 10.4 mph N/A   Clear
3:56 PM 44.1 °F 41.5 °F 22.8 °F 43% 30.32 in 10.0 mi WNW 4.6 mph 10.4 mph N/A   Clear
4:25 PM - - - N/A% 30.32 in 10.0 mi WNW 5.8 mph - N/A   Clear
4:35 PM 44.1 °F 40.8 °F 23.0 °F 43% 30.32 in 10.0 mi WNW 5.8 mph - N/A   Clear
4:55 PM 43.9 °F 42.3 °F 22.6 °F 43% 30.32 in 10.0 mi WNW 3.5 mph - N/A   Clear
4:56 PM 43.9 °F - 22.8 °F 43% 30.32 in 10.0 mi Calm Calm - N/A   Clear
5:17 PM 43.7 °F 42.1 °F 22.6 °F 43% 30.31 in 10.0 mi WNW 3.5 mph - N/A   Clear
5:35 PM 43.0 °F 39.5 °F 23.5 °F 46% 30.31 in 10.0 mi NW 5.8 mph - N/A   Clear
5:36 PM 43.0 °F 40.3 °F 23.5 °F 46% 30.31 in 10.0 mi NW 4.6 mph - N/A   Clear
5:55 PM 42.1 °F 40.2 °F 23.5 °F 48% 30.30 in 10.0 mi NW 3.5 mph - N/A   Clear
6:00 PM 41.7 °F 39.8 °F 23.7 °F 49% 30.30 in 10.0 mi NW 3.5 mph - N/A   Clear
6:17 PM 40.8 °F - 24.8 °F 53% 30.30 in 10.0 mi Calm Calm - N/A   Clear
6:36 PM 38.8 °F - 26.4 °F 61% 30.31 in 10.0 mi Calm Calm - N/A   Clear
6:55 PM 37.9 °F - 26.2 °F 63% 30.31 in 10.0 mi Calm Calm - N/A   Clear
6:59 PM 37.9 °F - 26.4 °F 63% 30.32 in 10.0 mi Calm Calm - N/A   Clear
7:16 PM 35.4 °F - 27.5 °F 73% 30.32 in 10.0 mi Calm Calm - N/A   Clear
7:35 PM 34.3 °F - 27.0 °F 74% 30.33 in 10.0 mi Calm Calm - N/A   Clear
7:36 PM 34.3 °F - 27.0 °F 74% 30.33 in 10.0 mi Calm Calm - N/A   Clear
7:55 PM 34.7 °F 31.8 °F 26.6 °F 72% 30.33 in 10.0 mi South 3.5 mph - N/A   Clear
7:56 PM 34.9 °F 32.0 °F 26.6 °F 72% 30.33 in 10.0 mi South 3.5 mph - N/A   Clear
8:17 PM 32.0 °F - 27.5 °F 83% 30.33 in 10.0 mi Calm Calm - N/A   Clear
8:35 PM 32.0 °F - 27.3 °F 83% 30.33 in 10.0 mi Calm Calm - N/A   Clear
8:36 PM 32.0 °F - 27.3 °F 83% 30.33 in 10.0 mi Calm Calm - N/A   Clear
8:55 PM 32.0 °F - 27.5 °F 83% 30.33 in 10.0 mi Calm Calm - N/A   Clear
9:18 PM 30.4 °F - 27.1 °F 88% 30.34 in 10.0 mi Calm Calm - N/A   Clear
9:35 PM 31.5 °F - 27.0 °F 83% 30.34 in 10.0 mi Calm Calm - N/A   Clear
9:55 PM 31.1 °F - 27.5 °F 87% 30.34 in 10.0 mi Calm Calm - N/A   Clear
9:56 PM 31.3 °F - 27.5 °F 86% 30.34 in 10.0 mi Calm Calm - N/A   Clear
10:18 PM 30.4 °F - 27.1 °F 88% 30.34 in 10.0 mi Calm Calm - N/A   Clear
10:55 PM 29.1 °F - 27.5 °F 94% 30.34 in 10.0 mi Calm Calm - N/A   Clear
11:00 PM 29.1 °F - 27.3 °F 93% 30.34 in 10.0 mi Calm Calm - N/A   Clear
11:17 PM 29.1 °F - 27.3 °F 93% 30.33 in 10.0 mi Calm Calm - N/A   Clear
11:35 PM 29.3 °F - 27.3 °F 92% 30.34 in 10.0 mi Calm Calm - N/A   Clear
11:36 PM 29.5 °F - 27.5 °F 92% 30.34 in 10.0 mi Calm Calm - N/A   Clear
11:55 PM 30.2 °F - 27.0 °F 88% 30.33 in 10.0 mi Calm Calm - N/A   Clear
11:56 PM 30.0 °F - 27.0 °F 88% 30.33 in 10.0 mi Calm Calm - N/A   Clear